This is the latest recevied weather packets stored in our database for station/object R2AKT-13. If no packets are shown the sender has not sent any weather packets the latest 10 day(s).
| Time | Temp. | Humidity | Pressure | Rain* | Wind** | Luminosity | Snow |
|---|---|---|---|---|---|---|---|
| 1788641731 | 13.33° C | 74% | 975.9 hPa | - | 0.45 m/s, 129° | - | - |
| 1788641145 | 13.89° C | 73% | 975.9 hPa | - | 0.89 m/s, 166° | - | - |
| 1788640591 | 13.89° C | 72% | 975.7 hPa | - | 1.34 m/s, 157° | - | - |
| 1788640011 | 13.89° C | 72% | 975.5 hPa | - | 1.34 m/s, 129° | - | - |
| 1788639516 | 14.44° C | 71% | 975.5 hPa | - | 1.34 m/s, 202° | - | - |
| 1788638941 | 14.44° C | 71% | 975.4 hPa | - | 1.79 m/s, 224° | - | - |
| 1788638341 | 14.44° C | 71% | 975.4 hPa | - | 1.79 m/s, 255° | - | - |
| 1788637766 | 14.44° C | 70% | 975.5 hPa | - | 1.34 m/s, 200° | - | - |
| 1788637263 | 15° C | 70% | 975.5 hPa | - | 2.24 m/s, 261° | - | - |
| 1788636691 | 15° C | 70% | 975.4 hPa | - | 0.89 m/s, 227° | - | - |
| 1788636181 | 15° C | 69% | 975.4 hPa | - | 1.79 m/s, 245° | - | - |
| 1788635680 | 15° C | 70% | 975.4 hPa | - | 1.79 m/s, 265° | - | - |
| 1788635191 | 15° C | 69% | 975 hPa | - | 1.34 m/s, 262° | - | - |
| 1788634606 | 15° C | 70% | 975.2 hPa | - | 1.34 m/s, 272° | - | - |
| 1788634011 | 15° C | 70% | 975.3 hPa | - | 1.79 m/s, 266° | - | - |
| 1788633521 | 15° C | 69% | 975.3 hPa | - | 0.89 m/s, 247° | - | - |
| 1788632951 | 15° C | 69% | 975 hPa | - | 0.89 m/s, 240° | - | - |
| 1788632431 | 15° C | 70% | 975.2 hPa | - | 0.89 m/s, 248° | - | - |
| 1788631832 | 14.44° C | 69% | 975.1 hPa | - | 1.34 m/s, 241° | - | - |
| 1788631306 | 15° C | 69% | 975.1 hPa | - | 0.89 m/s, 238° | - | - |
| 1788630706 | 15° C | 69% | 975 hPa | - | 0.89 m/s, 216° | - | - |
| 1788630126 | 15° C | 68% | 975 hPa | - | 0.45 m/s, 257° | - | - |
| 1788629560 | 15° C | 68% | 974.8 hPa | - | 0.45 m/s, 250° | - | - |
| 1788628981 | 15° C | 67% | 974.8 hPa | - | 1.34 m/s, 262° | - | - |
| 1788628431 | 15.56° C | 66% | 974.7 hPa | - | 0.89 m/s, 261° | - | - |
* Rain since midnight (hover to see other rain measurements)
** Current wind speed in m/s (hover to see current wind gust speed)